sat.trackr.live / text

‹ back to catalog

STARLINK-35646

NORAD 66859 · 2025-281M

PAYLOAD ACTIVE UNKNOWN

§ Identity

Operator
Country
US
Launch date
2025-12-02
Launch site
AFETR
Launch vehicle
Mass (kg)
RCS (m²)

Purposes: comms

External: N2YO · Heavens-Above · Gunter

§ Orbital elements

Epoch: 2026-05-25T01:15:15.499008Z

Period
94.27 min
Inclination
43.0014°
Eccentricity
0.0000878
Mean motion
15.27592674 rev/d
Perigee alt
482.4 km
Apogee alt
483.6 km
Semi-major
6,861.1 km
B*
5.7033e-4
RAAN
272.2627°
Arg perigee
304.3165°
Mean anomaly
55.7603°
Rev number
2,786

§ Raw data

STARLINK-356461 66859U 25281M   26145.05226272  .00015471  00000+0  57033-3 0  99942 66859  43.0014 272.2627 0000878 304.3165  55.7603 15.27592674 27868

JSON: /api/v1/satellites/66859 · /tle

For live sub-satellite position, see the globe view (requires WebGL).

§ Visibility from observer

Set your observer location to see the next 7 days of passes ≥ 10°. The values pass through the URL so the page stays shareable.

No JS? Fill the form by hand. The geolocation button needs JavaScript.